Regional Weather Roundup
Issued by NWS

Home | Current Version | Previous Version | Graphics & Text | Print | Product List | Glossary On
Versions: 1 2 3 4 5 6 7 8 9 10 11 12 13 14 15 16 17 18 19 20 21 22 23 24 25 26 27 28 29 30 31 32 33 34 35 36 37 38 39 40 41 42 43 44 45 46 47 48 49 50
000
ASUS43 KDTX 271601
RWRMI
MICHIGAN HOURLY REGIONAL WEATHER ROUNDUP
NATIONAL WEATHER SERVICE DETROIT/PONTIAC MI
1200 PM EDT FRI MAR 27 2015

NOTE: "FAIR" INDICATES FEW OR NO CLOUDS BELOW 12,000 FEET WITH NO
SIGNIFICANT WEATHER AND/OR OBSTRUCTION TO VISIBILITY.

MIZ047>049-052>055-059>063-066>070-074>076-081>083-271700-
SOUTHEAST LOWER MICHIGAN

CITY           SKY/WX    TMP DP  RH WIND       PRES   REMARKS
ADRIAN         CLOUDY    26  13  57 N14       30.03S WCI  14
ALMA           MOSUNNY   25  -1  32 N14G23    30.08S WCI  13
ANN ARBOR      LGT SNOW  24  15  68 N14G22    30.02S WCI  12
BAD AXE        LGT SNOW  19  11  74 N18G25    30.04S WCI   3
CARO           CLOUDY    21  12  67 N12       30.06R WCI   9
DETROIT CITY   CLOUDY    27  14  58 N10       30.01S WCI  17
DETROIT        FLURRIES  27  14  58 N10       30.02S WCI  17
FLINT          LGT SNOW  22  15  75 N13       30.05R VSB 1   WCI  10
GROSSE ILE     CLOUDY    27  14  59 NW16      30.00S WCI  14
HILLSDALE      CLOUDY    24   9  51 NW14      30.01S WCI  12
HOWELL         LGT SNOW  23  13  65 N10       30.03S WCI  12

CITY           SKY/WX    TMP DP  RH WIND       PRES   REMARKS
JACKSON        CLOUDY    22  10  60 N15       30.03S WCI   9
LAMBERTVILLE   CLOUDY    28  16  59 N10       30.03S WCI  19
LANSING        CLOUDY    22   7  52 N12       30.07R WCI  10
LAPEER         LGT SNOW  21  13  72 N10G20    30.03R WCI  10
MASON          CLOUDY    22   7  53 N12G20    30.04S WCI  11
MONROE         CLOUDY    27  16  63 N12       30.01S WCI  16
MT. CLEMENS    LGT SNOW  25  16  68 NW16      29.98R WCI  12
PONTIAC        LGT SNOW  22  15  75 NW16G28   30.00R WCI   8
PORT HOPE        N/A     20  11  68 N22G29    30.03S WCI   3
PORT HURON     LGT SNOW  23  16  74 N13G22    30.00S WCI  11
TRI CITIES     CLOUDY    24   7  48 N14G22    30.07S WCI  12
TROY           FLURRIES  26  15  63 NW13      30.03S WCI  15
SAGINAW HB     LGT SNOW  21  16  79 N10       30.07R WCI  10
$$
MIZ043>046-050>051-056>058-064>065-071>073-077>080-271700-
SOUTHWEST LOWER MICHIGAN

CITY           SKY/WX    TMP DP  RH WIND       PRES   REMARKS
BATTLE CREEK   SUNNY     27  -1  30 N18G24    30.05F WCI  14
BENTON HARBOR  SUNNY     25   6  44 NE15G26   30.12R WCI  13
BIG RAPIDS     PTSUNNY   20   3  47 N10G18    30.08S WCI   9
COLDWATER      CLOUDY    23   7  48 N15G21    30.05R WCI  10
FREMONT        FAIR      24  -2  32 N20G25    30.12R WCI  10
HOLLAND        SUNNY     27   2  34 N13G22    30.12S WCI  16
GRAND RAPIDS   MOSUNNY   25   1  35 NW13      30.09S WCI  14
IONIA          FAIR      26   0  33 N15       30.07R WCI  13
KALAMAZOO      MOSUNNY   27   1  32 N20G25    30.08S WCI  13
LUDINGTON      LGT SNOW  21  15  78 N12G18    30.17R VSB 3/4 WCI   9
MARSHALL       CLOUDY    23   5  46 NW5       30.04F WCI  16
MOUNT PLEASANT MOSUNNY   23  -1  35 NW13G20   30.07S WCI  11
MUSKEGON       MOSUNNY   27   2  34 N18G29    30.14S WCI  14
SOUTH HAVEN    SUNNY     28   2  34 N12G24    30.12R WCI  17
$$
MIZ016>042-271700-
NORTHERN LOWER MICHIGAN

CITY           SKY/WX    TMP DP  RH WIND       PRES   REMARKS
ALPENA         CLOUDY    13   4  67 NW16G24   30.12R WCI  -3
BEAVER ISLAND  SUNNY     12   0  57 N13G18    30.20S WCI  -2
BELLAIRE       MOSUNNY   13   2  59 NW5       30.17S WCI   6
CADILLAC       PTSUNNY   17   4  56 NW17      30.06F WCI   2
CHARLEVOIX     SUNNY     10   2  72 N14       30.21S WCI  -6
FRANKFORT      CLOUDY    20   6  55 N12G20    30.19R WCI   7
GAYLORD        SUNNY     13  -2  51 N9        30.06S WCI   1
GRAYLING       SUNNY     17  -2  44 N9G17     30.08R WCI   5
HARBOR SPRINGS SUNNY     13   1  59 NW9       30.16R WCI   0
HOUGHTON LAKE  MOSUNNY   18  -1  43 NW16      30.06F WCI   3
MANISTEE       PTSUNNY   19   3  49 N15G24    30.17R WCI   5
OSCODA         CLOUDY    21   8  58 N16       30.06S WCI   7
PELLSTON       SUNNY     12   0  58 N9        30.17S WCI   0
ROGERS CITY    CLOUDY    12   4  70 N13       30.15R WCI  -3
TRAVERSE CITY  PTSUNNY   14   6  70 N14       30.17R WCI  -1
$$
MIZ007>008-015-271700-
EASTERN UPPER MICHIGAN

CITY           SKY/WX    TMP DP  RH WIND       PRES   REMARKS
KINROSS        SUNNY     10   0  61 NW12      30.16F WCI  -4
MACKINAC ISLAN SUNNY     12  -3  50 N14G21    30.16S WCI  -3
NEWBERRY       SUNNY      9  -2  62 NW12G17   30.19S WCI  -6
S. S. MARIE    SUNNY     12  -4  48 NW8       30.16F WCI   0
$$
MIZ004>006-011>014-085-271700-
CENTRAL UPPER MICHIGAN

CITY           SKY/WX    TMP DP  RH WIND       PRES   REMARKS
MANISTIQUE     SUNNY     13   1  58 N10G23    30.21F WCI  -1
ESCANABA       MOSUNNY   18   1  49 N13G18    30.23F WCI   4
MENOMINEE      MOSUNNY   19   5  53 N14       30.23S WCI   6
SAWYER-GWINN   PTSUNNY   10   3  72 N16       30.21R WCI  -7
$$
MIZ001>003-009>011-084-271700-
WESTERN UPPER MICHIGAN

CITY           SKY/WX    TMP DP  RH WIND       PRES   REMARKS
IRON MOUNTAIN  SUNNY     17   1  49 N13       30.20S WCI   4
HOUGHTON       SUNNY     16   3  56 NE3       30.24F
COPPER HARBOR    N/A     13   0  56 E6        30.30S WCI   4
IRONWOOD       SUNNY     19   9  63 N9        30.21S WCI   9
$$

ABBREVIATIONS USED IN REMARKS
   TC - TEMPERATURE IN CELSIUS
  WCI - WIND CHILL INDEX
   HX - HEAT INDEX
  VSB - VISIBILITY




USA.gov is the U.S. government's official web portal to all federal, state and local government web resources and services.